No particular awareness of the weather is required.    There are no Weather-warnings


Meteo18 Weather Cam more information Meteo18 Weather Cam


Thunder radar more information blitzortung!


Rain radar more information rain snow radar


Visit our other weather sites:

Template documentation
and downloads

And another site



Weather Underground History page Text

Daily Summary for January 12, 2017 Units:  Metric    English   Both
« Previous Day
Next Day »
Daily Weekly Monthly Yearly Custom
  High: Low: Average:
Temperature: 10.0 °C 4.7 °C 6.6 °C
Dew Point: 8.0 °C 1.6 °C 5.2 °C
Humidity: 97 % 72 % 91 %
Wind Speed: 51.5 km/h 0.0 km/h 11.4 km/h
Wind Gust: 72.4 km/h - -
Wind:- - SW
Pressure: 1021.6 hPa 1000.2 hPa -
Precipitation: 5.3 mm    
Historical Graphs
 
 
Tabular Data for January 12, 2017
Time Temperature Dew Point Pressure Wind Wind Speed Wind Gust Humidity Rainfall Rate (Hourly)
00:02 7.7 °C 5.3 °C 1021.2 hPa WNW 8.0 km/h 9.7 km/h 85 % 0.0 mm
00:07 7.7 °C 5.2 °C 1021.2 hPa WNW 8.0 km/h 14.5 km/h 84 % 0.0 mm
00:12 7.7 °C 5.2 °C 1021.2 hPa West 4.8 km/h 14.5 km/h 84 % 0.0 mm
00:17 7.7 °C 5.2 °C 1021.2 hPa West 4.8 km/h 14.5 km/h 84 % 0.0 mm
00:22 7.7 °C 5.2 °C 1021.2 hPa West 9.7 km/h 12.9 km/h 84 % 0.0 mm
00:27 7.7 °C 5.2 °C 1020.9 hPa WSW 3.2 km/h 9.7 km/h 84 % 0.0 mm
00:32 7.6 °C 5.1 °C 1021.2 hPa WSW 6.4 km/h 11.3 km/h 84 % 0.0 mm
00:37 7.6 °C 5.2 °C 1021.2 hPa WSW 6.4 km/h 11.3 km/h 85 % 0.0 mm
00:42 7.6 °C 5.2 °C 1021.6 hPa WSW 4.8 km/h 9.7 km/h 85 % 0.0 mm
00:47 7.5 °C 5.3 °C 1021.6 hPa SW 4.8 km/h 9.7 km/h 86 % 0.0 mm
00:52 7.5 °C 5.3 °C 1021.2 hPa WSW 11.3 km/h 11.3 km/h 86 % 0.0 mm
01:02 7.5 °C 5.3 °C 1020.9 hPa SW 3.2 km/h 11.3 km/h 86 % 0.0 mm
01:12 7.4 °C 5.4 °C 1020.9 hPa SW 3.2 km/h 11.3 km/h 87 % 0.0 mm
01:17 7.3 °C 5.3 °C 1021.2 hPa West 3.2 km/h 11.3 km/h 87 % 0.0 mm
01:22 7.3 °C 5.4 °C 1020.9 hPa WSW 8.0 km/h 11.3 km/h 88 % 0.0 mm
01:27 7.3 °C 5.4 °C 1020.9 hPa WSW 9.7 km/h 11.3 km/h 88 % 0.0 mm
01:32 7.2 °C 5.3 °C 1020.9 hPa SW 4.8 km/h 11.3 km/h 88 % 0.0 mm
01:37 7.2 °C 5.3 °C 1020.9 hPa WSW 8.0 km/h 11.3 km/h 88 % 0.0 mm
01:42 7.1 °C 5.4 °C 1020.9 hPa West 4.8 km/h 11.3 km/h 89 % 0.0 mm
01:52 7.1 °C 5.4 °C 1020.9 hPa WSW 3.2 km/h 11.3 km/h 89 % 0.0 mm
01:57 7.0 °C 5.3 °C 1021.2 hPa West 4.8 km/h 8.0 km/h 89 % 0.0 mm
02:02 6.9 °C 5.4 °C 1021.6 hPa WNW 6.4 km/h 8.0 km/h 90 % 0.0 mm
02:12 6.9 °C 5.4 °C 1021.2 hPa WSW 8.0 km/h 9.7 km/h 90 % 0.0 mm
02:17 6.9 °C 5.5 °C 1021.2 hPa West 4.8 km/h 9.7 km/h 91 % 0.0 mm
02:22 6.8 °C 5.4 °C 1021.2 hPa West 3.2 km/h 9.7 km/h 91 % 0.0 mm
02:27 6.8 °C 5.6 °C 1021.6 hPa West 6.4 km/h 9.7 km/h 92 % 0.0 mm
02:32 6.8 °C 5.6 °C 1021.2 hPa West 4.8 km/h 12.9 km/h 92 % 0.0 mm
02:37 6.8 °C 5.6 °C 1021.2 hPa West 4.8 km/h 12.9 km/h 92 % 0.0 mm
02:42 6.8 °C 5.6 °C 1021.2 hPa West 6.4 km/h 12.9 km/h 92 % 0.0 mm
02:52 6.8 °C 5.6 °C 1021.2 hPa WSW 4.8 km/h 11.3 km/h 92 % 0.0 mm
02:57 6.8 °C 5.6 °C 1021.2 hPa West 3.2 km/h 12.9 km/h 92 % 0.0 mm
03:02 6.8 °C 5.6 °C 1021.2 hPa West 4.8 km/h 12.9 km/h 92 % 0.0 mm
03:07 6.8 °C 5.4 °C 1021.2 hPa WSW 4.8 km/h 9.7 km/h 91 % 0.0 mm
03:12 6.8 °C 5.4 °C 1021.2 hPa West 6.4 km/h 9.7 km/h 91 % 0.0 mm
03:17 6.8 °C 5.4 °C 1021.6 hPa WSW 6.4 km/h 9.7 km/h 91 % 0.0 mm
03:22 6.8 °C 5.4 °C 1021.2 hPa West 6.4 km/h 9.7 km/h 91 % 0.0 mm
03:32 6.7 °C 5.3 °C 1021.2 hPa WSW 6.4 km/h 12.9 km/h 91 % 0.0 mm
03:37 6.7 °C 5.3 °C 1021.2 hPa West 6.4 km/h 9.7 km/h 91 % 0.0 mm
03:42 6.7 °C 5.3 °C 1021.2 hPa WSW 6.4 km/h 9.7 km/h 91 % 0.0 mm
03:47 6.6 °C 5.2 °C 1021.2 hPa WSW 3.2 km/h 9.7 km/h 91 % 0.0 mm
03:52 6.6 °C 5.2 °C 1021.2 hPa WNW 1.6 km/h 9.7 km/h 91 % 0.0 mm
03:57 6.6 °C 5.4 °C 1021.2 hPa WSW 3.2 km/h 8.0 km/h 92 % 0.0 mm
04:02 6.6 °C 5.2 °C 1021.2 hPa SW 3.2 km/h 8.0 km/h 91 % 0.0 mm
04:12 6.5 °C 5.3 °C 1020.9 hPa WSW 4.8 km/h 8.0 km/h 92 % 0.0 mm
04:17 6.4 °C 5.2 °C 1020.9 hPa WSW 4.8 km/h 9.7 km/h 92 % 0.0 mm
04:22 6.3 °C 5.1 °C 1020.9 hPa SW 3.2 km/h 9.7 km/h 92 % 0.0 mm
04:27 6.3 °C 5.1 °C 1020.9 hPa SW 3.2 km/h 9.7 km/h 92 % 0.0 mm
04:32 6.2 °C 5.0 °C 1020.9 hPa SW 1.6 km/h 9.7 km/h 92 % 0.0 mm
04:37 6.2 °C 5.2 °C 1020.9 hPa SW 1.6 km/h 6.4 km/h 93 % 0.0 mm
04:42 6.2 °C 5.2 °C 1020.9 hPa WSW 1.6 km/h 6.4 km/h 93 % 0.0 mm
04:47 6.1 °C 5.1 °C 1020.9 hPa SW 3.2 km/h 4.8 km/h 93 % 0.0 mm
04:52 6.1 °C 5.1 °C 1020.5 hPa SW 3.2 km/h 4.8 km/h 93 % 0.0 mm
04:57 6.0 °C 5.0 °C 1020.5 hPa Calm   4.8 km/h 93 % 0.0 mm
05:02 5.9 °C 4.9 °C 1020.5 hPa West 3.2 km/h 4.8 km/h 93 % 0.0 mm
05:07 5.9 °C 4.9 °C 1020.5 hPa WSW 3.2 km/h 6.4 km/h 93 % 0.0 mm
05:12 5.9 °C 4.9 °C 1020.5 hPa West 1.6 km/h 6.4 km/h 93 % 0.0 mm
05:17 5.9 °C 4.9 °C 1020.9 hPa WSW 1.6 km/h 6.4 km/h 93 % 0.0 mm
05:22 5.9 °C 4.9 °C 1020.5 hPa West 3.2 km/h 4.8 km/h 93 % 0.0 mm
05:27 5.8 °C 4.8 °C 1020.5 hPa West 1.6 km/h 6.4 km/h 93 % 0.0 mm
05:32 5.8 °C 4.8 °C 1020.9 hPa WSW 3.2 km/h 6.4 km/h 93 % 0.0 mm
05:37 5.8 °C 4.8 °C 1020.9 hPa West 1.6 km/h 6.4 km/h 93 % 0.0 mm
05:42 5.8 °C 4.8 °C 1020.9 hPa West 1.6 km/h 4.8 km/h 93 % 0.0 mm
05:52 5.8 °C 4.8 °C 1020.5 hPa WNW 3.2 km/h 6.4 km/h 93 % 0.0 mm
05:57 5.8 °C 4.8 °C 1020.5 hPa WNW 1.6 km/h 4.8 km/h 93 % 0.0 mm
06:02 5.8 °C 4.8 °C 1020.2 hPa Calm   3.2 km/h 93 % 0.0 mm
06:12 5.8 °C 4.8 °C 1020.2 hPa Calm   3.2 km/h 93 % 0.0 mm
06:17 5.8 °C 4.8 °C 1019.9 hPa Calm   3.2 km/h 93 % 0.0 mm
06:22 5.8 °C 4.8 °C 1020.2 hPa SW 1.6 km/h 1.6 km/h 93 % 0.0 mm
06:27 5.6 °C 4.6 °C 1020.2 hPa SSW 1.6 km/h 1.6 km/h 93 % 0.0 mm
06:32 5.5 °C 4.6 °C 1020.2 hPa SW 1.6 km/h 3.2 km/h 94 % 0.0 mm
06:37 5.5 °C 4.6 °C 1020.2 hPa SSW 1.6 km/h 3.2 km/h 94 % 0.0 mm
06:42 5.5 °C 4.6 °C 1020.2 hPa SW 1.6 km/h 4.8 km/h 94 % 0.0 mm
06:47 5.4 °C 4.5 °C 1019.9 hPa SSW 1.6 km/h 4.8 km/h 94 % 0.0 mm
06:52 5.3 °C 4.4 °C 1020.2 hPa SW 1.6 km/h 3.2 km/h 94 % 0.0 mm
06:57 5.3 °C 4.6 °C 1019.9 hPa Calm   3.2 km/h 95 % 0.0 mm
07:02 5.3 °C 4.6 °C 1019.9 hPa Calm   4.8 km/h 95 % 0.0 mm
07:07 5.3 °C 4.6 °C 1019.9 hPa Calm   4.8 km/h 95 % 0.0 mm
07:12 5.4 °C 4.7 °C 1019.9 hPa Calm   4.8 km/h 95 % 0.0 mm
07:17 5.4 °C 4.7 °C 1020.2 hPa Calm   1.6 km/h 95 % 0.0 mm
07:22 5.4 °C 4.5 °C 1019.9 hPa Calm   1.6 km/h 94 % 0.0 mm
07:27 5.3 °C 4.4 °C 1020.2 hPa Calm   1.6 km/h 94 % 0.0 mm
07:32 5.2 °C 4.3 °C 1020.2 hPa Calm   1.6 km/h 94 % 0.0 mm
07:37 5.1 °C 4.2 °C 1019.9 hPa Calm     94 % 0.0 mm
07:42 4.9 °C 4.2 °C 1019.9 hPa Calm     95 % 0.0 mm
07:47 4.9 °C 4.2 °C 1019.9 hPa SSW 1.6 km/h   95 % 0.0 mm
07:52 4.8 °C 4.1 °C 1019.5 hPa SSW 1.6 km/h 1.6 km/h 95 % 0.0 mm
07:57 4.8 °C 4.2 °C 1019.5 hPa SSW 1.6 km/h 3.2 km/h 96 % 0.0 mm
08:02 4.7 °C 4.1 °C 1019.5 hPa SW 4.8 km/h 4.8 km/h 96 % 0.0 mm
08:07 4.8 °C 4.2 °C 1019.5 hPa SW 4.8 km/h 6.4 km/h 96 % 0.0 mm
08:12 4.9 °C 4.5 °C 1019.9 hPa SW 4.8 km/h 8.0 km/h 97 % 0.0 mm
08:17 5.0 °C 4.4 °C 1019.5 hPa SW 3.2 km/h 8.0 km/h 96 % 0.0 mm
08:22 5.1 °C 4.5 °C 1019.5 hPa West 1.6 km/h 9.7 km/h 96 % 0.0 mm
08:27 5.1 °C 4.5 °C 1019.5 hPa SW 1.6 km/h 9.7 km/h 96 % 0.0 mm
08:32 5.1 °C 4.5 °C 1019.5 hPa SW 1.6 km/h 9.7 km/h 96 % 0.0 mm
08:37 5.1 °C 4.5 °C 1019.5 hPa SW 8.0 km/h 9.7 km/h 96 % 0.0 mm
08:42 5.1 °C 4.5 °C 1019.5 hPa SW 3.2 km/h 8.0 km/h 96 % 0.0 mm
08:52 5.1 °C 4.5 °C 1019.2 hPa West 4.8 km/h 9.7 km/h 96 % 0.0 mm
08:57 5.1 °C 4.5 °C 1019.2 hPa SW 6.4 km/h 9.7 km/h 96 % 0.0 mm
09:02 5.1 °C 4.5 °C 1019.5 hPa SW 8.0 km/h 11.3 km/h 96 % 0.0 mm
09:07 5.1 °C 4.5 °C 1019.5 hPa SW 8.0 km/h 12.9 km/h 96 % 0.0 mm
09:12 5.1 °C 4.4 °C 1019.5 hPa SW 9.7 km/h 12.9 km/h 95 % 0.0 mm
09:17 5.0 °C 4.3 °C 1019.5 hPa SW 6.4 km/h 12.9 km/h 95 % 0.0 mm
09:22 5.0 °C 4.4 °C 1019.5 hPa SW 6.4 km/h 12.9 km/h 96 % 0.0 mm
09:27 4.9 °C 4.3 °C 1019.5 hPa SW 4.8 km/h 12.9 km/h 96 % 0.0 mm
09:32 4.9 °C 4.3 °C 1019.5 hPa SSW 4.8 km/h 11.3 km/h 96 % 0.0 mm
09:37 4.9 °C 4.3 °C 1019.9 hPa WSW 3.2 km/h 9.7 km/h 96 % 0.0 mm
09:42 4.9 °C 4.3 °C 1019.5 hPa SW 6.4 km/h 9.7 km/h 96 % 0.0 mm
09:47 5.0 °C 4.4 °C 1019.5 hPa WSW 6.4 km/h 9.7 km/h 96 % 0.0 mm
09:52 5.1 °C 4.5 °C 1019.5 hPa WSW 9.7 km/h 9.7 km/h 96 % 0.0 mm
09:57 5.1 °C 4.5 °C 1019.5 hPa SW 3.2 km/h 11.3 km/h 96 % 0.0 mm
10:02 5.1 °C 4.4 °C 1019.5 hPa WSW 3.2 km/h 11.3 km/h 95 % 0.0 mm
10:12 5.2 °C 4.5 °C 1019.2 hPa SW 8.0 km/h 12.9 km/h 95 % 0.0 mm
10:22 5.2 °C 4.6 °C 1018.8 hPa SSW 3.2 km/h 11.3 km/h 96 % 0.0 mm
10:27 5.2 °C 4.6 °C 1018.8 hPa SW 8.0 km/h 11.3 km/h 96 % 0.0 mm
10:32 5.2 °C 4.6 °C 1018.8 hPa SW 6.4 km/h 11.3 km/h 96 % 0.0 mm
10:37 5.2 °C 4.6 °C 1018.8 hPa SW 9.7 km/h 9.7 km/h 96 % 0.0 mm
10:42 5.3 °C 4.7 °C 1018.8 hPa SW 6.4 km/h 11.3 km/h 96 % 0.0 mm
10:47 5.4 °C 4.8 °C 1018.8 hPa SW 6.4 km/h 11.3 km/h 96 % 0.0 mm
10:52 5.4 °C 4.8 °C 1018.8 hPa SW 6.4 km/h 11.3 km/h 96 % 0.0 mm
10:57 5.6 °C 4.9 °C 1018.8 hPa SW 6.4 km/h 11.3 km/h 95 % 0.0 mm
11:02 5.6 °C 4.9 °C 1018.8 hPa SW 4.8 km/h 11.3 km/h 95 % 0.0 mm
11:12 5.8 °C 5.1 °C 1018.2 hPa SSW 6.4 km/h 9.7 km/h 95 % 0.0 mm
11:17 5.9 °C 5.2 °C 1018.2 hPa SSW 3.2 km/h 9.7 km/h 95 % 0.0 mm
11:27 6.1 °C 5.4 °C 1018.2 hPa SW 4.8 km/h 9.7 km/h 95 % 0.0 mm
11:32 6.2 °C 5.5 °C 1017.8 hPa SSW 1.6 km/h 8.0 km/h 95 % 0.0 mm
11:37 6.4 °C 5.7 °C 1017.8 hPa SSW 3.2 km/h 8.0 km/h 95 % 0.0 mm
11:42 6.5 °C 5.6 °C 1017.8 hPa SW 4.8 km/h 8.0 km/h 94 % 0.0 mm
11:47 6.6 °C 5.5 °C 1017.5 hPa SSW 3.2 km/h 8.0 km/h 93 % 0.0 mm
11:52 6.6 °C 5.5 °C 1017.5 hPa SSW 1.6 km/h 8.0 km/h 93 % 0.0 mm
11:57 6.8 °C 5.7 °C 1017.2 hPa SSW 4.8 km/h 9.7 km/h 93 % 0.0 mm
12:02 6.8 °C 5.6 °C 1017.2 hPa South 4.8 km/h 11.3 km/h 92 % 0.0 mm
12:07 6.9 °C 5.5 °C 1017.2 hPa SSW 8.0 km/h 11.3 km/h 91 % 0.0 mm
12:12 6.9 °C 5.5 °C 1016.8 hPa SSW 6.4 km/h 12.9 km/h 91 % 0.0 mm
12:17 7.0 °C 5.6 °C 1016.8 hPa SSW 9.7 km/h 12.9 km/h 91 % 0.0 mm
12:27 7.1 °C 5.7 °C 1016.5 hPa SW 16.1 km/h 16.1 km/h 91 % 0.0 mm
12:32 7.1 °C 5.7 °C 1016.1 hPa SSW 8.0 km/h 12.9 km/h 91 % 0.0 mm
12:37 7.1 °C 5.6 °C 1016.1 hPa SW 12.9 km/h 16.1 km/h 90 % 0.0 mm
12:42 7.1 °C 5.6 °C 1016.1 hPa SSW 12.9 km/h 19.3 km/h 90 % 0.0 mm
12:47 7.1 °C 5.6 °C 1015.8 hPa SW 9.7 km/h 19.3 km/h 90 % 0.0 mm
12:52 7.1 °C 5.7 °C 1015.8 hPa SW 9.7 km/h 19.3 km/h 91 % 0.0 mm
12:57 7.1 °C 5.7 °C 1015.5 hPa SSW 6.4 km/h 19.3 km/h 91 % 0.0 mm
13:02 7.0 °C 5.8 °C 1015.5 hPa SSW 6.4 km/h 19.3 km/h 92 % 0.0 mm
13:12 6.8 °C 5.7 °C 1014.8 hPa SW 9.7 km/h 17.7 km/h 93 % 0.3 mm
13:17 6.8 °C 5.7 °C 1014.8 hPa SSW 8.0 km/h 14.5 km/h 93 % 0.3 mm
13:22 6.7 °C 5.6 °C 1014.4 hPa SW 11.3 km/h 19.3 km/h 93 % 0.3 mm
13:27 6.6 °C 5.7 °C 1014.4 hPa SSW 11.3 km/h 20.9 km/h 94 % 0.5 mm
13:32 6.6 °C 5.7 °C 1014.4 hPa SW 17.7 km/h 20.9 km/h 94 % 0.5 mm
13:37 6.5 °C 5.8 °C 1014.1 hPa SW 11.3 km/h 20.9 km/h 95 % 0.5 mm
13:42 6.5 °C 5.8 °C 1013.8 hPa SSW 11.3 km/h 19.3 km/h 95 % 0.5 mm
13:47 6.5 °C 5.8 °C 1013.8 hPa SSW 6.4 km/h 19.3 km/h 95 % 0.5 mm
13:52 6.5 °C 5.9 °C 1013.8 hPa SW 16.1 km/h 16.1 km/h 96 % 0.8 mm
13:57 6.4 °C 5.8 °C 1013.4 hPa SW 14.5 km/h 22.5 km/h 96 % 1.0 mm
14:02 6.5 °C 5.9 °C 1013.1 hPa SW 16.1 km/h 22.5 km/h 96 % 1.0 mm
14:12 6.5 °C 5.9 °C 1012.8 hPa SW 11.3 km/h 20.9 km/h 96 % 1.0 mm
14:17 6.6 °C 6.0 °C 1012.8 hPa SSW 8.0 km/h 19.3 km/h 96 % 1.0 mm
14:22 6.6 °C 6.0 °C 1012.4 hPa SSW 9.7 km/h 17.7 km/h 96 % 1.0 mm
14:27 6.6 °C 6.0 °C 1012.4 hPa SSW 9.7 km/h 17.7 km/h 96 % 1.0 mm
14:32 6.7 °C 6.1 °C 1012.1 hPa SSW 11.3 km/h 17.7 km/h 96 % 1.0 mm
15:23 6.8 °C 6.2 °C 1010.4 hPa South 12.9 km/h 17.7 km/h 96 % 0.8 mm
15:32 6.9 °C 6.3 °C 1009.7 hPa SSW 11.3 km/h 20.9 km/h 96 % 0.8 mm
15:37 6.9 °C 6.3 °C 1009.7 hPa SW 8.0 km/h 20.9 km/h 96 % 1.0 mm
15:42 6.9 °C 6.3 °C 1009.4 hPa SSW 16.1 km/h 22.5 km/h 96 % 0.8 mm
15:52 6.9 °C 6.3 °C 1009.0 hPa South 12.9 km/h 22.5 km/h 96 % 0.8 mm
15:57 6.9 °C 6.3 °C 1009.0 hPa SSW 12.9 km/h 24.1 km/h 96 % 0.8 mm
16:02 7.0 °C 6.4 °C 1008.7 hPa SSW 9.7 km/h 24.1 km/h 96 % 0.8 mm
16:12 7.0 °C 6.4 °C 1008.4 hPa SSW 20.9 km/h 27.4 km/h 96 % 0.5 mm
16:17 7.0 °C 6.4 °C 1008.4 hPa SW 11.3 km/h 27.4 km/h 96 % 0.5 mm
16:22 7.1 °C 6.5 °C 1008.0 hPa SSW 9.7 km/h 27.4 km/h 96 % 0.5 mm
16:27 7.0 °C 6.4 °C 1008.0 hPa South 17.7 km/h 25.7 km/h 96 % 0.5 mm
16:32 7.1 °C 6.5 °C 1008.0 hPa SSW 17.7 km/h 25.7 km/h 96 % 0.5 mm
16:42 7.1 °C 6.4 °C 1007.3 hPa South 20.9 km/h 29.0 km/h 95 % 0.5 mm
16:52 7.1 °C 6.5 °C 1007.3 hPa South 19.3 km/h 29.0 km/h 96 % 0.8 mm
16:57 7.1 °C 6.5 °C 1007.0 hPa SSW 19.3 km/h 29.0 km/h 96 % 0.8 mm
17:02 7.1 °C 6.5 °C 1006.7 hPa South 12.9 km/h 29.0 km/h 96 % 0.5 mm
17:12 7.1 °C 6.5 °C 1006.7 hPa South 12.9 km/h 27.4 km/h 96 % 0.8 mm
17:17 7.2 °C 6.5 °C 1006.3 hPa SSW 16.1 km/h 27.4 km/h 95 % 0.8 mm
17:22 7.2 °C 6.5 °C 1006.0 hPa South 16.1 km/h 32.2 km/h 95 % 1.0 mm
17:32 7.3 °C 6.6 °C 1005.6 hPa SSW 25.7 km/h 35.4 km/h 95 % 1.0 mm
17:37 7.3 °C 6.6 °C 1005.3 hPa SSW 19.3 km/h 37.0 km/h 95 % 0.8 mm
17:42 7.3 °C 6.6 °C 1005.0 hPa South 22.5 km/h 37.0 km/h 95 % 0.5 mm
17:47 7.2 °C 6.5 °C 1005.0 hPa SSW 25.7 km/h 33.8 km/h 95 % 0.5 mm
17:52 7.2 °C 6.5 °C 1005.0 hPa SSW 14.5 km/h 33.8 km/h 95 % 0.5 mm
17:57 7.1 °C 6.4 °C 1004.6 hPa South 19.3 km/h 33.8 km/h 95 % 0.5 mm
18:02 7.1 °C 6.5 °C 1004.3 hPa SSW 17.7 km/h 32.2 km/h 96 % 0.8 mm
18:12 7.2 °C 6.6 °C 1004.3 hPa SSW 22.5 km/h 38.6 km/h 96 % 0.8 mm
18:17 7.2 °C 6.5 °C 1003.9 hPa SSW 17.7 km/h 38.6 km/h 95 % 0.8 mm
18:22 7.2 °C 6.5 °C 1003.6 hPa SSW 30.6 km/h 33.8 km/h 95 % 0.8 mm
18:27 7.2 °C 6.5 °C 1003.6 hPa South 11.3 km/h 35.4 km/h 95 % 1.0 mm
18:32 7.2 °C 6.5 °C 1003.3 hPa SW 22.5 km/h 35.4 km/h 95 % 1.0 mm
18:37 7.2 °C 6.6 °C 1003.3 hPa SSW 27.4 km/h 35.4 km/h 96 % 1.3 mm
18:42 7.2 °C 6.5 °C 1002.9 hPa South 22.5 km/h 33.8 km/h 95 % 1.5 mm
18:47 7.2 °C 6.5 °C 1002.9 hPa SW 17.7 km/h 33.8 km/h 95 % 1.5 mm
18:52 7.2 °C 6.5 °C 1002.9 hPa SW 22.5 km/h 33.8 km/h 95 % 1.3 mm
18:57 7.3 °C 6.6 °C 1002.6 hPa SW 12.9 km/h 32.2 km/h 95 % 1.3 mm
19:02 7.3 °C 6.6 °C 1002.3 hPa SW 20.9 km/h 30.6 km/h 95 % 1.0 mm
19:12 7.4 °C 6.7 °C 1001.9 hPa SW 19.3 km/h 35.4 km/h 95 % 0.8 mm
19:17 7.5 °C 6.9 °C 1001.6 hPa SSW 20.9 km/h 35.4 km/h 96 % 0.5 mm
19:22 7.7 °C 6.9 °C 1001.6 hPa SSW 29.0 km/h 35.4 km/h 95 % 0.5 mm
19:32 7.9 °C 7.1 °C 1001.2 hPa WSW 24.1 km/h 40.2 km/h 95 % 0.5 mm
19:42 8.4 °C 7.6 °C 1000.9 hPa WSW 14.5 km/h 40.2 km/h 95 % 0.3 mm
19:47 8.7 °C 7.8 °C 1000.6 hPa SW 35.4 km/h 41.8 km/h 94 % 0.3 mm
19:52 8.9 °C 7.8 °C 1000.6 hPa SW 35.4 km/h 48.3 km/h 93 % 0.3 mm
19:57 9.1 °C 8.0 °C 1000.2 hPa WSW 51.5 km/h 53.1 km/h 93 % 0.3 mm
20:02 9.5 °C 7.8 °C 1000.6 hPa WSW 35.4 km/h 72.4 km/h 89 % 0.5 mm
20:07 9.7 °C 7.1 °C 1000.6 hPa West 22.5 km/h 72.4 km/h 84 % 0.5 mm
20:17 10.0 °C 6.2 °C 1001.2 hPa SW 35.4 km/h 70.8 km/h 77 % 0.3 mm
20:22 9.8 °C 5.6 °C 1001.2 hPa West 49.9 km/h 70.8 km/h 75 % 0.3 mm
20:27 9.5 °C 5.7 °C 1001.2 hPa West 46.7 km/h 70.8 km/h 77 % 0.3 mm
20:32 9.2 °C 5.2 °C 1001.6 hPa West 30.6 km/h 70.8 km/h 76 % 0.3 mm
20:37 8.9 °C 5.1 °C 1001.9 hPa WNW 33.8 km/h 70.8 km/h 77 % 0.3 mm
20:42 8.8 °C 5.0 °C 1001.9 hPa West 29.0 km/h 61.1 km/h 77 % 0.3 mm
20:52 8.5 °C 4.5 °C 1002.3 hPa West 41.8 km/h 57.9 km/h 76 % 0.3 mm
21:02 8.3 °C 4.7 °C 1002.3 hPa WSW 24.1 km/h 56.3 km/h 78 % 0.0 mm
21:07 8.1 °C 4.7 °C 1002.6 hPa WNW 12.9 km/h 59.5 km/h 79 % 0.0 mm
21:17 7.9 °C 4.7 °C 1002.9 hPa West 24.1 km/h 49.9 km/h 80 % 0.0 mm
21:22 7.8 °C 4.7 °C 1002.9 hPa West 29.0 km/h 49.9 km/h 81 % 0.0 mm
21:32 7.7 °C 4.3 °C 1002.9 hPa WNW 16.1 km/h 54.7 km/h 79 % 0.0 mm
21:37 7.7 °C 4.3 °C 1003.3 hPa WSW 32.2 km/h 57.9 km/h 79 % 0.0 mm
21:42 7.6 °C 4.2 °C 1002.9 hPa West 20.9 km/h 57.9 km/h 79 % 0.0 mm
21:52 7.4 °C 4.0 °C 1003.3 hPa West 29.0 km/h 61.1 km/h 79 % 0.0 mm
21:57 7.4 °C 4.0 °C 1003.6 hPa WSW 25.7 km/h 61.1 km/h 79 % 0.0 mm
22:02 7.4 °C 3.8 °C 1003.6 hPa WNW 19.3 km/h 56.3 km/h 78 % 0.0 mm
22:12 7.3 °C 3.7 °C 1003.9 hPa West 25.7 km/h 49.9 km/h 78 % 0.0 mm
22:17 7.2 °C 3.8 °C 1003.9 hPa West 30.6 km/h 49.9 km/h 79 % 0.0 mm
22:22 7.1 °C 3.9 °C 1003.9 hPa South 20.9 km/h 49.9 km/h 80 % 0.0 mm
22:32 7.1 °C 3.9 °C 1004.6 hPa West 11.3 km/h 51.5 km/h 80 % 0.0 mm
22:37 6.9 °C 3.7 °C 1004.6 hPa WSW 27.4 km/h 51.5 km/h 80 % 0.0 mm
22:42 6.9 °C 3.3 °C 1004.3 hPa West 40.2 km/h 51.5 km/h 78 % 0.0 mm
22:52 6.8 °C 3.1 °C 1004.6 hPa West 43.4 km/h 59.5 km/h 77 % 0.0 mm
22:57 6.7 °C 3.0 °C 1005.0 hPa WNW 20.9 km/h 59.5 km/h 77 % 0.0 mm
23:02 6.6 °C 3.2 °C 1005.0 hPa WSW 16.1 km/h 59.5 km/h 79 % 0.0 mm
23:12 6.4 °C 2.1 °C 1005.3 hPa West 27.4 km/h 43.4 km/h 74 % 0.0 mm
23:17 6.4 °C 2.1 °C 1005.3 hPa West 20.9 km/h 49.9 km/h 74 % 0.0 mm
23:22 6.4 °C 2.1 °C 1005.3 hPa WSW 25.7 km/h 49.9 km/h 74 % 0.0 mm
23:27 6.4 °C 1.9 °C 1005.3 hPa West 20.9 km/h 49.9 km/h 73 % 0.0 mm
23:32 6.3 °C 1.6 °C 1005.6 hPa WSW 17.7 km/h 66.0 km/h 72 % 0.0 mm
23:37 6.3 °C 1.8 °C 1005.6 hPa West 29.0 km/h 66.0 km/h 73 % 0.0 mm
23:47 6.1 °C 2.6 °C 1006.0 hPa West 14.5 km/h 43.4 km/h 78 % 0.0 mm
23:52 6.0 °C 2.3 °C 1006.0 hPa West 32.2 km/h 41.8 km/h 77 % 0.0 mm
23:57 6.0 °C 1.9 °C 1006.0 hPa WNW 37.0 km/h 51.5 km/h 75 % 0.0 mm
Meteo18
Compliments of Weather Underground - 4 mb

Script developed by  Jim McMurry - jmcmurry@mwt.net Adapted for the template by  Wim van der Kuil - Leuven-Template.eu

You find our weather info also at:

European Weather Network

Weather Underground

Equipment we use:

Weather-station
Davis Vue

Weather-program
Meteohub

Weather-server
Raspberry PI 2 B+

Provider
1 and 1

Davis Vue

Meteohub

Raspberry PI 2 B+

1 and 1